Torna al catalogo

COSMOS 2251 DEB

AttivoLEO
NORAD 34738·DEBRIS·🇷🇺 Russia

Lanciato Jun 16, 1993 da Plesetsk Cosmodrome

Loading…

Prossimi Passaggi (prossime 24 ore)

TLE

AggiornatoSource: Space-Track

Epoca: Sep 14, 2026, 10:44 UTC

1 34738U 93036ZG  26257.44754686  .00000473  00000-0  13642-3 0  9995
2 34738  74.0180 347.7132 0045202  66.3494  59.6809 14.46798956918452

Traccia COSMOS 2251 DEB in tempo reale con AllMySat

Download on the App Store